GW4151 Weather Reports


time (UTC)temp
F
wind
direction
speed
knots
gust
knots
rain 1hr
in
rain 24hr
in
rain mn
in
humidity
%
barometer
mb
20260906220303 77 124 0.9 1.7 0.00 0.00 0.00 59 999.3
20260906214800 77 118 0.9 1.7 0.00 0.00 0.00 59 999.4
20260906213300 78 175 0.9 1.7 0.00 0.00 0.00 58 999.7
20260906211759 77 0 2.6 5.2 0.00 0.00 0.00 56 999.6
20260906210255 78 59 1.7 5.2 0.00 0.00 0.00 58 999.6
20260906204753 78 149 0.9 3.5 0.00 0.00 0.00 56 999.7
20260906203253 78 242 0.9 1.7 0.00 0.00 0.00 57 999.5
20260906201750 78 146 0.0 2.6 0.00 0.00 0.00 57 999.4
20260906200247 77 135 1.7 6.1 0.00 0.00 0.00 58 999.3
20260906194746 78 42 0.9 3.5 0.00 0.00 0.00 58 999.4
20260906193243 77 43 2.6 3.5 0.00 0.00 0.00 59 999.6
20260906191738 77 24 1.7 2.6 0.00 0.00 0.00 62 999.7
20260906190234 77 58 1.7 2.6 0.00 0.00 0.00 62 999.7
20260906184733 78 2 2.6 3.5 0.00 0.00 0.00 60 1000.0
20260906183232 77 106 0.9 3.5 0.00 0.00 0.00 62 999.8
20260906181728 77 189 0.9 1.7 0.00 0.00 0.00 65 999.7
20260906180226 74 119 0.9 3.5 0.00 0.00 0.00 68 1000.1
20260906174723 77 113 1.7 6.1 0.00 0.00 0.00 63 1000.2
20260906173220 76 112 0.9 1.7 0.00 0.00 0.00 66 1000.3
20260906171720 74 116 0.9 5.2 0.00 0.00 0.00 71 1000.4
20260906170218 75 32 1.7 3.5 0.00 0.00 0.00 68 1000.6
20260906164714 74 138 0.9 6.1 0.00 0.00 0.00 68 1001.0
20260906163213 76 179 0.0 1.7 0.00 0.00 0.00 70 1000.8
20260906161710 73 69 1.7 6.1 0.00 0.00 0.00 71 1000.6
20260906160208 74 63 2.6 6.1 0.00 0.00 0.00 72 1000.5
20260906154702 73 218 0.9 5.2 0.00 0.00 0.00 75 1000.8
20260906153201 73 159 3.5 3.5 0.00 0.00 0.00 71 1000.7
20260906151657 72 129 2.6 5.2 0.00 0.00 0.00 74 1000.9
20260906150155 72 193 0.9 1.7 0.00 0.00 0.00 75 1000.8
20260906144654 71 188 0.9 3.5 0.00 0.00 0.00 77 1000.6
20260906143152 72 115 0.9 2.6 0.00 0.00 0.00 79 1000.5
20260906141651 69 29 2.6 5.2 0.00 0.00 0.00 82 1000.4
20260906140146 68 46 1.7 2.6 0.00 0.00 0.00 84 1000.3
20260906134646 66 46 0.9 2.6 0.00 0.00 0.00 86 1000.2
20260906133143 65 92 0.0 2.6 0.00 0.00 0.00 88 1000.4
20260906131641 64 175 0.0 2.6 0.00 0.00 0.00 89 1000.3
20260906130138 64 279 1.7 2.6 0.00 0.00 0.00 89 1000.6
20260906124637 62 122 0.0 1.7 0.00 0.00 0.00 93 1000.3
20260906123132 59 172 0.0 0.0 0.00 0.00 0.00 99 1000.2
20260906121629 58 227 0.0 1.7 0.00 0.00 0.00 99 1000.0
20260906120124 57 147 0.0 0.0 0.00 0.00 0.00 99 999.7
20260906114624 56 0 0.0 0.0 0.00 0.00 0.00 99 999.7
20260906113120 56 207 0.0 0.0 0.00 0.00 0.00 98 999.6
20260906111615 56 186 0.0 0.0 0.00 0.00 0.00 98 999.3
20260906110111 56 227 0.0 0.0 0.00 0.00 0.00 97 999.3
20260906104607 57 172 0.0 0.0 0.00 0.00 0.00 97 999.1
20260906103107 57 159 0.0 0.0 0.00 0.00 0.00 96 999.2
20260906101602 57 174 0.0 0.9 0.00 0.00 0.00 95 999.2
20260906100058 57 211 0.0 0.9 0.00 0.00 0.00 95 999.1
20260906094558 58 179 0.0 1.7 0.00 0.00 0.00 93 999.0
20260906093056 58 122 0.9 0.9 0.00 0.00 0.00 94 999.0
20260906091554 58 151 0.0 0.9 0.00 0.00 0.00 94 999.2
20260906090051 59 126 0.9 2.6 0.00 0.00 0.00 93 998.9
20260906084550 58 71 0.9 1.7 0.00 0.00 0.00 94 998.8
20260906083050 59 169 0.0 0.9 0.00 0.00 0.00 93 998.4
20260906081549 59 96 0.0 0.9 0.00 0.00 0.00 93 998.3
20260906080049 59 35 1.7 1.7 0.00 0.00 0.00 93 998.2
20260906074544 59 98 0.9 0.9 0.00 0.00 0.00 92 998.3
20260906073040 59 171 0.9 1.7 0.00 0.00 0.00 92 998.2
20260906071538 60 178 0.0 0.0 0.00 0.00 0.00 91 998.2
20260906070037 61 162 0.0 0.9 0.00 0.00 0.00 90 998.2
20260906064533 61 149 1.7 2.6 0.00 0.00 0.00 89 998.2
20260906063031 61 180 0.0 1.7 0.00 0.00 0.00 89 998.3
20260906061529 62 112 0.9 1.7 0.00 0.00 0.00 89 998.3
20260906060027 61 128 0.9 1.7 0.00 0.00 0.00 89 998.2
20260906054524 62 119 0.9 0.9 0.00 0.00 0.00 91 998.2
20260906053022 61 169 0.0 0.0 0.00 0.00 0.00 91 998.0
20260906051521 62 185 0.0 0.0 0.00 0.00 0.00 90 997.8
20260906050018 63 179 0.0 0.0 0.00 0.00 0.00 89 998.1
20260906044513 64 182 0.0 0.0 0.00 0.00 0.00 88 997.8
20260906043012 64 187 0.0 1.7 0.00 0.00 0.00 87 997.7
20260906041507 65 176 0.0 0.0 0.00 0.00 0.00 88 997.3
20260906040003 66 156 0.0 1.7 0.00 0.01 0.01 88 997.5
20260906034500 66 94 0.9 1.7 0.00 0.01 0.01 89 997.4
20260906032957 65 184 0.0 0.0 0.00 0.01 0.01 90 997.3
20260906031455 66 166 0.0 1.7 0.00 0.01 0.01 89 997.1
20260906025951 67 178 0.0 0.9 0.00 0.01 0.01 87 997.1
20260906024450 68 162 0.0 0.0 0.00 0.01 0.01 86 997.1
20260906022946 69 179 0.0 2.6 0.00 0.01 0.01 83 996.9
20260906021443 70 180 0.9 1.7 0.00 0.01 0.01 83 996.6
20260906015938 71 174 0.9 0.9 0.00 0.01 0.01 84 996.5
20260906014438 71 169 0.0 0.9 0.00 0.01 0.01 84 996.6
20260906012936 72 204 0.9 1.7 0.00 0.01 0.01 85 996.5
20260906011431 73 103 1.7 1.7 0.00 0.01 0.01 83 996.3
20260906005930 72 164 0.0 0.9 0.00 0.01 0.01 87 995.8
20260906004428 72 204 0.0 0.0 0.00 0.01 0.01 91 995.7
20260906002925 72 171 0.0 0.0 0.00 0.01 0.01 90 995.8
20260906001421 73 174 0.0 0.0 0.00 0.01 0.01 91 995.8
20260905235918 73 193 0.0 0.0 0.00 0.01 0.01 88 995.8
20260905234414 75 195 0.0 0.9 0.00 0.01 0.01 85 996.0
20260905232914 77 188 0.0 0.0 0.00 0.01 0.01 79 995.7
20260905231414 77 136 0.0 0.9 0.00 0.01 0.01 79 995.6
20260905225913 77 103 0.9 1.7 0.00 0.01 0.01 78 995.5
20260905224411 77 330 1.7 1.7 0.00 0.01 0.01 78 995.8
20260905222908 76 39 2.6 2.6 0.00 0.01 0.01 79 995.7